Station TKPN6 - Turkey Point Hudson River NERRS, NY (NOS 8518962) Image indicating link to RSS feed of recent meteorological observations for station TKPN6


Conditions at TKPN6 as of
(9:00 am EDT)
1300 GMT on 06/10/2023:
     

Click on the graph icon in the table below to see a time series plot of the last five days of that observation.

5-day plot - Wind Direction Wind Direction (WDIR): S ( 180 deg true )
5-day plot - Wind Speed Wind Speed (WSPD): 2.9 kts
5-day plot - Wind Gust Wind Gust (GST): 4.1 kts
5-day plot - Atmospheric Pressure Atmospheric Pressure (PRES):29.82 in
5-day plot - Pressure Tendency Pressure Tendency (PTDY):+0.04 in ( Rising )
5-day plot - Air Temperature Air Temperature (ATMP): 55.2 °F
5-day plot - Dew Point Dew Point (DEWP): 52.2 °F
5-day plot -  Wind Speed, Wind Gust and Atmospheric Pressure Combined plot of Wind Speed, Gust, and Air Pressure
Previous observations
TIME
(EDT)
5-day plot - Wind Direction
WDIR
 
5-day plot - Wind Speed
WSPD
kts
5-day plot - Wind Gust
GST
kts
5-day plot - Wave Height
WVHT
ft
5-day plot - Dominant Wave Period
DPD
sec
5-day plot - Average Wave Period
APD
sec
5-day plot - Mean Wave Direction
MWD
 
5-day plot - Atmospheric Pressure
PRES
in
5-day plot - Pressure Tendency
PTDY
in
5-day plot - Air Temperature
ATMP
°F
5-day plot - Water Temperature
WTMP
°F
5-day plot - Dew Point
DEWP
°F
5-day plot - Salinity
SAL
psu
5-day plot - Visibility
VIS
nmi
5-day plot - Tide (above MLLW)
TIDE
ft
2023-06-10 08:54 am S 2.9 4.1----29.82- 55.0- 52.0---
2023-06-10 08:48 am S 1.9 4.1----29.81- 54.9- 51.8---
2023-06-10 08:42 am S 2.9 4.1----29.81- 55.0- 52.0---
2023-06-10 08:36 am S 2.9 4.1----29.81- 55.0- 52.2---
2023-06-10 08:30 am SE 1.0 2.9----29.81- 54.9- 52.0---
2023-06-10 08:24 am SE 1.0 1.9----29.81- 55.0- 52.2---
2023-06-10 08:18 am- 0.0 2.9----29.81- 54.9- 52.2---
2023-06-10 08:12 am SE 1.9 2.9----29.81- 54.5- 51.8---
2023-06-10 08:06 am E 1.0 2.9----29.81- 54.5- 52.0---
2023-06-10 08:00 am S 2.9 4.1----29.81+0.05 54.1- 51.4---
2023-06-10 07:54 amSSE 1.9 2.9----29.81- 54.7- 52.2---
2023-06-10 07:48 am-------29.80- 54.0- 51.6---
2023-06-10 07:42 am-------29.80- 53.8- 51.4---
2023-06-10 07:36 am-------29.80- 53.6- 51.3---
2023-06-10 07:30 am S 2.9 4.1----29.80- 53.1- 50.7---
2023-06-10 07:24 am SW 1.0 2.9----29.80- 53.1- 50.9---
2023-06-10 07:18 am- 0.0 1.9----29.80- 53.1- 51.1---
2023-06-10 07:12 am- 0.0 1.0----29.80- 52.9- 51.1---
2023-06-10 07:06 am S 1.0 2.9----29.80- 52.7- 51.1---
2023-06-10 07:00 amSSE 1.0 2.9----29.80+0.05 52.9- 51.6---
2023-06-10 06:54 am S 1.0 2.9----29.79- 52.7- 51.4---
2023-06-10 06:48 amESE 2.9 2.9----29.79- 52.9- 51.6---
2023-06-10 06:42 am E 1.0 4.1----29.79- 52.9- 51.6---
2023-06-10 06:36 amENE 1.9 2.9----29.79- 52.9- 51.6---
2023-06-10 06:30 am E 1.9 2.9----29.79- 52.9- 51.6---
2023-06-10 06:24 am E 1.0 2.9----29.79- 52.5- 51.3---
2023-06-10 06:18 am E 1.0 1.9----29.79- 52.2- 50.7---
2023-06-10 06:12 am E 1.0 1.9----29.78- 51.6- 50.2---
2023-06-10 06:06 am- 0.0 0.0----29.78- 50.7- 49.1---
2023-06-10 06:00 am- 0.0 1.0----29.78+0.03------
2023-06-10 05:54 am- 0.0 0.0----29.78-------
2023-06-10 05:48 am- 0.0 1.0----29.78- 50.4- 48.7---
2023-06-10 05:42 am- 0.0 1.0----29.78- 50.4- 48.7---
2023-06-10 05:36 am- 0.0 0.0----29.77- 50.5- 49.1---
2023-06-10 05:30 am- 0.0 1.0----29.77- 50.4- 48.9---
2023-06-10 05:24 am SW 1.0 1.0----29.77- 50.2- 48.7---
2023-06-10 05:18 am- 0.0 1.0----29.76- 50.0- 48.6---
2023-06-10 05:12 am- 0.0 1.0----29.76- 50.0- 48.6---
2023-06-10 05:06 am- 0.0 1.0----29.76- 49.8- 48.2---
2023-06-10 05:00 am- 0.0 1.0----29.76+0.00 50.2- 48.7---
2023-06-10 04:54 am- 0.0 1.0----29.76- 50.2- 48.7---
2023-06-10 04:48 am- 0.0 1.0----29.76- 50.0- 48.4---
2023-06-10 04:42 am- 0.0 1.0----29.76- 50.5- 49.1---
2023-06-10 04:36 am- 0.0 2.9----29.75- 50.5- 49.1---
2023-06-10 04:30 amWSW 1.0 1.9----29.75- 50.9- 49.3---
2023-06-10 04:24 am- 0.0 1.0----29.75- 51.4- 50.0---
2023-06-10 04:18 am- 0.0 1.9----29.75- 52.0- 50.5---
2023-06-10 04:12 am- 0.0 2.9----29.75- 52.0- 50.5---
2023-06-10 04:06 am- 0.0 2.9----29.75- 52.0- 50.5---
2023-06-10 04:00 amSSW 1.0 1.9----29.75-0.01 52.2- 50.7---
2023-06-10 03:54 am- 0.0 1.9----29.75- 52.0- 50.5---
2023-06-10 03:48 am- 0.0 1.0----29.75- 52.0- 50.5---
2023-06-10 03:42 am- 0.0 0.0----29.75- 52.0- 50.5---
2023-06-10 03:36 am- 0.0 1.0----29.75- 52.0- 50.5---
2023-06-10 03:30 am- 0.0 1.0----29.75- 51.8- 50.4---
2023-06-10 03:24 am- 0.0 1.9----29.75- 51.8- 50.2---
2023-06-10 03:18 am- 0.0 1.0----29.75- 51.8- 50.4---
2023-06-10 03:12 am- 0.0 1.9----29.75- 52.2- 50.7---
2023-06-10 03:06 am- 0.0 1.0----29.75- 52.2- 50.7---
2023-06-10 03:00 am SW 1.0 1.9----29.75-0.02 52.2- 50.7---
2023-06-10 02:54 am SW 1.0 1.9----29.75- 52.2- 50.7---
2023-06-10 02:48 am- 0.0 1.0----29.75- 52.3- 50.9---
2023-06-10 02:42 am- 0.0 1.0----29.75- 52.2- 50.7---
2023-06-10 02:36 am- 0.0 1.0----29.75- 52.3- 50.9---
2023-06-10 02:30 am- 0.0 1.0----29.75- 52.5- 51.1---
2023-06-10 02:24 am- 0.0 2.9----29.75- 52.5- 51.1---
2023-06-10 02:18 am- 0.0 1.0----29.75- 52.7- 51.3---
2023-06-10 02:12 am- 0.0 2.9----29.76- 53.2- 51.8---
2023-06-10 02:06 am- 0.0 2.9----29.76- 53.6- 52.2---
2023-06-10 02:00 am SW 1.0 2.9----29.76-0.02 53.8-----
2023-06-10 01:54 am- 0.0 1.9----29.76- 53.4-----
2023-06-10 01:48 am- 0.0 1.0----29.76- 53.6- 52.2---
2023-06-10 01:42 am- 0.0 1.0----29.76- 53.8- 52.5---
2023-06-10 01:36 am- 0.0 1.9----29.75- 53.6- 52.2---
2023-06-10 01:30 am- 0.0 1.0----29.76- 53.4- 52.0---
2023-06-10 01:24 am- 0.0 1.0----29.76- 53.2- 51.8---
2023-06-10 01:18 am- 0.0 1.0----29.76- 53.2- 51.8---
2023-06-10 01:12 am- 0.0 0.0----29.76- 53.1- 51.4---
2023-06-10 01:06 am- 0.0 1.0----29.76- 53.6- 52.2---
2023-06-10 01:00 amSSW 1.0 1.9----29.76-0.02 54.0- 52.5---
2023-06-10 12:54 am E 1.0 2.9----29.76- 54.3- 52.9---
2023-06-10 12:48 am- 0.0 1.0----29.76- 54.1- 52.7---
2023-06-10 12:42 am- 0.0 1.0----29.76- 54.0- 52.5---
2023-06-10 12:36 am- 0.0 1.9----29.76- 54.1- 52.7---
2023-06-10 12:30 am- 0.0 1.0----29.77- 54.1- 52.7---
2023-06-10 12:24 am- 0.0 1.0----29.77- 54.1- 52.7---
2023-06-10 12:18 am- 0.0 1.0----29.77- 54.0- 52.5---
2023-06-10 12:12 am- 0.0 1.0----29.77- 54.1- 52.7---
2023-06-10 12:06 am- 0.0 0.0----29.77- 54.3- 52.9---
2023-06-10 12:00 am- 0.0 1.0----29.77+0.00 54.1- 52.7---
2023-06-09 11:54 pm- 0.0 1.0----29.77- 54.0- 52.3---
2023-06-09 11:48 pm- 0.0 1.0----29.77- 54.1- 52.5---
2023-06-09 11:42 pm- 0.0 1.0----29.77- 54.1- 52.5---
2023-06-09 11:36 pm- 0.0 1.0----29.77- 54.1- 52.5---
2023-06-09 11:30 pm- 0.0 0.0----29.77- 54.3- 52.7---
2023-06-09 11:24 pm- 0.0 1.0----29.78- 54.3- 52.7---
2023-06-09 11:18 pm- 0.0 1.0----29.77- 54.3- 52.7---
2023-06-09 11:12 pm- 0.0 1.0----29.78- 54.7- 53.1---
2023-06-09 11:06 pm- 0.0 1.0----29.78- 54.9- 53.2---
2023-06-09 11:00 pmWSW 1.0 1.9----29.78+0.02 55.4- 53.8---
2023-06-09 10:54 pm- 0.0 1.0----29.78- 55.4- 53.8---
2023-06-09 10:48 pm- 0.0 1.9----29.78- 55.6- 54.0---
2023-06-09 10:42 pm- 0.0 1.0----29.78- 55.8- 54.1---
2023-06-09 10:36 pm- 0.0 1.0----29.78- 55.8- 54.1---
2023-06-09 10:30 pm- 0.0 1.9----29.78- 55.9- 54.3---
2023-06-09 10:24 pm- 0.0 1.0----29.78- 55.8- 54.0---
2023-06-09 10:18 pm- 0.0 2.9----29.78- 55.9- 54.0---
2023-06-09 10:12 pm SW 1.0 1.9----29.78- 55.9- 54.0---
2023-06-09 10:06 pm SW 1.0 4.1----29.78- 56.3- 54.0---
2023-06-09 10:00 pm SE 2.9 4.1----29.78+0.03 57.0- 55.2---
2023-06-09 09:54 pm- 0.0 1.0----29.78- 55.8- 54.1---
2023-06-09 09:48 pm- 0.0 1.0----29.78- 55.8- 54.1---
2023-06-09 09:42 pmSSW 1.0 1.9----29.78- 55.8- 54.1---
2023-06-09 09:36 pm- 0.0 1.0----29.78- 55.6- 54.0---
2023-06-09 09:30 pm- 0.0 1.0----29.78- 55.4- 53.8---
2023-06-09 09:24 pm- 0.0 1.0----29.78- 55.4- 53.8---
2023-06-09 09:18 pm- 0.0 1.0----29.77- 55.6- 54.0---
2023-06-09 09:12 pm- 0.0 1.0----29.77- 55.6- 54.0---
2023-06-09 09:06 pm- 0.0 1.0----29.77- 55.2- 53.6---
2023-06-09 09:00 pm- 0.0 1.0----29.76+0.03 55.4- 53.8---
2023-06-09 08:54 pm- 0.0 1.0----29.76- 55.2- 53.4---
2023-06-09 08:48 pm- 0.0 1.0----29.76- 55.4- 53.6---
2023-06-09 08:42 pm- 0.0 1.0----29.76- 55.6- 53.6---
2023-06-09 08:36 pm- 0.0 1.0----29.76- 55.8- 53.8---
2023-06-09 08:30 pm- 0.0 1.0----29.76- 55.9- 53.8---
2023-06-09 08:24 pm- 0.0 1.0----29.75- 56.3- 54.1---
2023-06-09 08:18 pm W 1.0 2.9----29.75- 56.5- 54.0---
2023-06-09 08:12 pm- 0.0 1.9----29.75- 57.2- 54.5---
2023-06-09 08:06 pm N 4.1 5.1----29.75- 57.9- 54.9---
2023-06-09 08:00 pm N 2.9 5.1----29.75+0.04 57.7- 54.7---
2023-06-09 07:54 pm N 2.9 5.1----29.75- 57.9- 54.5---
2023-06-09 07:48 pm N 5.1 6.0----29.75- 58.1- 55.0---
2023-06-09 07:42 pm N 1.0 5.1----29.76- 57.7- 54.5---
2023-06-09 07:36 pm N 4.1 6.0----29.75- 58.5- 55.0---
2023-06-09 07:30 pm N 5.1 7.0----29.75- 57.9- 55.0---
2023-06-09 07:24 pm N 1.9 5.1----29.75- 57.7- 54.5---
2023-06-09 07:18 pm N 1.9 4.1----29.75- 58.1- 53.8---
2023-06-09 07:12 pmNNE 2.9 4.1----29.75- 58.5- 53.8---
2023-06-09 07:00 pmNNE 4.1 7.0----29.75+0.03 58.8- 53.6---
2023-06-09 06:54 pm N 6.0 8.0----29.75- 58.8- 53.2---
2023-06-09 06:48 pmNNE 6.0 11.1----29.75- 59.2- 54.3---
2023-06-09 06:42 pm N 1.0 5.1----29.75- 57.4- 55.2---
2023-06-09 06:36 pm- 0.0 1.9----29.75- 57.2- 54.5---
2023-06-09 06:30 pm- 0.0 2.9----29.75- 57.4- 54.3---
2023-06-09 06:24 pm NW 1.0 5.1----29.75- 57.7- 53.8---
2023-06-09 06:18 pmSSW 1.0 1.9----29.75- 58.3- 53.2---
2023-06-09 06:12 pm- 0.0 1.9----29.74- 59.2- 52.7---
2023-06-09 06:06 pm N 1.0 8.9----29.74- 60.1- 51.6---
2023-06-09 06:00 pm N 7.0 11.1----29.73+0.00 61.3- 51.4---
2023-06-09 05:54 pm N 5.1 8.9----29.73- 62.4- 52.2---
2023-06-09 05:48 pmNNW 6.0 14.0----29.73- 62.8- 52.5---
2023-06-09 05:42 pmNNW 1.0 2.9----29.72- 63.1- 54.0---
2023-06-09 05:36 pm- 0.0 1.0----29.72- 64.0- 53.8---
2023-06-09 05:30 pm- 0.0 1.9----29.72- 65.1- 54.7---
2023-06-09 05:24 pm- 0.0 1.0----29.71- 64.9- 54.7---
2023-06-09 05:18 pm- 0.0 1.9----29.72- 64.2- 51.1---
2023-06-09 05:12 pmSSW 1.0 2.9----29.72- 63.9- 52.2---
2023-06-09 05:06 pm- 0.0 1.0----29.72- 64.0- 54.1---
2023-06-09 05:00 pm- 0.0 1.0----29.72-0.03 64.0- 54.1---
2023-06-09 04:54 pm- 0.0 1.0----29.72- 64.0- 52.7---
2023-06-09 04:48 pm- 0.0 0.0----29.72- 64.0- 51.6---
2023-06-09 04:42 pm- 0.0 0.0----29.72- 63.5- 52.3---
2023-06-09 04:36 pm- 0.0 4.1----29.72- 63.3- 54.0---
2023-06-09 04:30 pm S 4.1 6.0----29.72- 63.1- 52.5---
2023-06-09 04:24 pm S 5.1 6.0----29.72- 63.3- 52.9---
2023-06-09 04:18 pmSSE 4.1 5.1----29.72- 63.7- 52.7---
2023-06-09 04:12 pm S 2.9 4.1----29.72- 63.3- 52.2---
2023-06-09 04:06 pmSSE 2.9 5.1----29.72- 62.4- 54.1---
2023-06-09 04:00 pm S 4.1 5.1----29.72-0.03 62.2- 54.1---
2023-06-09 03:54 pmSSE 4.1 6.0----29.72- 61.9- 54.0---
2023-06-09 03:48 pm S 6.0 7.0----29.72- 62.1- 55.2---
2023-06-09 03:42 pm S 5.1 6.0----29.72- 61.7- 55.0---
2023-06-09 03:36 pmSSE 6.0 8.9----29.72- 61.3- 55.8---
2023-06-09 03:30 pm S 8.0 8.9----29.72- 61.3- 55.9---
2023-06-09 03:24 pm S 7.0 8.0----29.72- 61.2- 54.5---
2023-06-09 03:18 pm S 7.0 8.0----29.72- 60.6- 54.1---
2023-06-09 03:12 pm S 2.9 4.1----29.72- 60.1- 54.5---
2023-06-09 03:06 pmSSE 1.0 1.9----29.73- 59.7- 53.6---
2023-06-09 03:00 pm S 2.9 2.9----29.73-0.03 59.9- 54.5---
2023-06-09 02:54 pm- 0.0 0.0----29.73- 59.0- 54.9---
2023-06-09 02:48 pm- 0.0 1.0----29.73- 58.8- 56.1---
2023-06-09 02:42 pm- 0.0 1.0----29.73- 57.4- 55.0---
2023-06-09 02:36 pm- 0.0 1.0----29.73- 56.5- 53.8---
2023-06-09 02:30 pmNNW 1.0 4.1----29.73- 56.8- 53.4---
2023-06-09 02:24 pmNNW 1.0 4.1----29.74- 57.0- 52.7---
2023-06-09 02:18 pm N 1.0 4.1----29.74- 57.7- 52.7---
2023-06-09 02:12 pmNNW 2.9 6.0----29.75- 58.3- 52.0---
2023-06-09 02:06 pm N 6.0 9.9----29.75- 58.8- 52.2---
2023-06-09 02:00 pm N 7.0 11.1----29.75-0.04 59.9- 52.5---
2023-06-09 01:54 pm N 5.1 8.9----29.74- 61.9- 53.8---
2023-06-09 01:48 pm N 5.1 12.0----29.74- 64.0- 52.5---
2023-06-09 01:42 pm N 5.1 12.0----29.74- 64.8- 51.8---
2023-06-09 01:36 pm N 5.1 7.0----29.74- 64.8- 49.8---
2023-06-09 01:30 pm N 4.1 7.0----29.74- 65.3- 49.1---
2023-06-09 01:24 pm N 5.1 7.0----29.74- 65.5- 48.7---
2023-06-09 01:18 pm N 4.1 5.1----29.74- 66.2- 49.1---
2023-06-09 01:12 pm N 4.1 5.1----29.74- 66.2- 49.6---
2023-06-09 01:06 pmNNE 4.1 5.1----29.74- 65.8- 49.8---
2023-06-09 01:00 pmNNE 4.1 5.1----29.75-0.05 65.5- 50.2---
2023-06-09 12:54 pmNNE 4.1 5.1----29.75- 65.1- 50.4---
2023-06-09 12:48 pmNNE 2.9 4.1----29.75- 64.6- 49.3---
2023-06-09 12:42 pm N 2.9 4.1----29.75- 64.2- 48.7---
2023-06-09 12:36 pm N 2.9 4.1----29.75- 63.9- 49.3---
2023-06-09 12:30 pm N 1.9 2.9----29.75- 63.5- 49.1---
2023-06-09 12:24 pm N 1.0 1.9----29.75- 63.0- 48.9---
2023-06-09 12:18 pmNNE 1.9 2.9----29.76- 63.0- 49.6---
2023-06-09 12:12 pm N 1.9 2.9----29.76- 62.6- 49.8---
2023-06-09 12:06 pm- 0.0 1.9----29.76- 62.2- 49.8---
2023-06-09 12:00 pm N 1.0 2.9----29.76-0.03 61.9- 51.1---
2023-06-09 11:54 am N 1.9 2.9----29.77- 61.2- 50.9---
2023-06-09 11:48 am N 1.9 1.9----29.77- 61.2- 52.0---
2023-06-09 11:42 am N 1.0 2.9----29.77- 60.8- 52.5---
2023-06-09 11:36 am N 1.9 2.9----29.78- 60.4- 52.3---
2023-06-09 11:30 am N 1.9 2.9----29.78- 60.3- 52.5---
2023-06-09 11:24 am N 1.9 4.1----29.78- 59.9- 52.5---
2023-06-09 11:18 am N 2.9 5.1----29.78- 59.4- 52.2---
2023-06-09 11:12 am N 2.9 4.1----29.78- 59.0- 52.2---
2023-06-09 11:06 am N 2.9 5.1----29.78- 58.5- 52.0---
2023-06-09 11:00 am N 1.9 5.1----29.79+0.00 58.5- 52.0---
2023-06-09 10:54 am N 4.1 5.1----29.79- 58.3- 52.0---
2023-06-09 10:48 am N 2.9 5.1----29.79- 58.1- 51.8---
2023-06-09 10:42 am N 2.9 4.1----29.79- 57.9- 51.6---
2023-06-09 10:36 am N 1.9 1.9----29.79- 57.7- 51.1---
2023-06-09 10:30 amNNE 1.0 2.9----29.79- 57.6-----
2023-06-09 10:24 am NE 1.0 1.9----29.79- 57.7-----
2023-06-09 10:18 am- 0.0 1.9----29.79- 57.4- 52.5---
2023-06-09 10:12 am NE 1.0 1.9----29.80- 57.2- 52.7---
2023-06-09 10:06 am- 0.0 1.0----29.80- 56.5- 51.8---
2023-06-09 10:00 am- 0.0 1.9----29.80+0.01 56.7- 52.0---
2023-06-09 09:54 am NE 1.0 1.9----29.80- 56.8- 52.2---
2023-06-09 09:48 am- 0.0 1.9----29.80- 56.7- 52.0---
2023-06-09 09:42 am- 0.0 1.0----29.80- 56.7- 52.0---
2023-06-09 09:36 am NE 1.0 1.9----29.80- 56.3- 52.0---
2023-06-09 09:30 am- 0.0 2.9----29.80- 56.1- 52.2---
2023-06-09 09:24 am E 1.0 4.1----29.80- 56.1- 52.2---
2023-06-09 09:18 am N 1.9 2.9----29.80- 55.8- 51.4---
2023-06-09 09:12 am- 0.0 2.9----29.80- 55.8- 51.8---
2023-06-09 09:06 am- 0.0 1.0----29.80- 55.6- 51.4---
2023-06-09 09:00 amNNE 1.0 4.1----29.80+0.03 55.4- 51.1---
2023-06-09 08:54 amNNE 1.0 2.9----29.80- 55.4- 50.9---